CW9561 Weather Reports


Display with metric or nautical units.
time (UTC)temp
F
wind
direction
speed
MPH
gust
MPH
rain 1hr
in
rain 24hr
in
rain mn
in
humidity
%
barometer
mb
20260903020037 54 86 0.0 0.0 0.00 0.00 0.08 77 1024.8
20260903015037 54 86 0.0 0.0 0.00 0.00 0.08 78 1024.9
20260903014033 55 86 0.0 0.0 0.00 0.00 0.08 77 1025.0
20260903013028 55 86 0.0 0.0 0.00 0.00 0.08 76 1024.8
20260903012022 55 86 0.0 0.0 0.00 0.00 0.08 75 1024.5
20260903011023 56 86 0.0 0.0 0.00 0.00 0.08 76 1024.2
20260903010020 58 86 0.0 0.0 0.00 0.00 0.08 72 1024.4
20260903005041 59 86 0.0 0.0 0.00 0.00 0.08 66 1024.4
20260903003022 60 86 0.0 0.0 0.00 0.00 0.08 64 1024.3
20260903002024 60 86 0.0 0.0 0.00 0.00 0.08 65 1024.3
20260903001025 60 86 0.0 0.0 0.00 0.00 0.08 68 1024.3
20260903000040 60 86 0.0 0.0 0.00 0.00 0.08 65 1024.9
20260902235039 59 86 0.0 0.0 0.00 0.00 0.08 69 1024.9
20260902234039 58 86 0.0 0.0 0.00 0.00 0.08 74 1024.9
20260902233035 58 86 0.0 0.0 0.00 0.00 0.08 70 1024.9
20260902232031 59 86 0.0 0.0 0.00 0.00 0.08 72 1025.1
20260902231028 58 86 0.0 0.0 0.00 0.00 0.08 72 1025.4
20260902230024 58 126 0.0 0.0 0.00 0.00 0.08 70 1025.4
20260902224028 59 304 1.0 0.0 0.00 0.00 0.08 70 1025.4
20260902223029 58 250 0.0 0.0 0.00 0.00 0.08 73 1025.2
20260902222025 56 256 0.0 0.0 0.00 0.00 0.08 81 1025.5
20260902221027 55 239 0.0 0.0 0.00 0.00 0.08 84 1025.8
20260902220025 54 286 1.0 0.0 0.00 0.00 0.08 83 1026.2
20260902215041 55 232 0.0 0.0 0.00 0.00 0.08 83 1026.0
20260902214039 55 266 0.0 0.0 0.00 0.00 0.08 86 1025.5
20260902213035 54 262 0.0 0.0 0.00 0.00 0.08 89 1025.5
20260902212035 53 303 0.0 0.0 0.00 0.00 0.08 87 1025.1
20260902211032 54 284 3.0 0.0 0.00 0.00 0.07 79 1025.5
20260902210028 62 310 3.0 0.0 0.00 0.00 0.00 62 1026.4
20260902205023 68 245 1.0 0.0 0.00 0.00 0.00 42 1024.9
20260902204022 70 186 1.0 0.0 0.00 0.00 0.00 40 1024.6
20260902203020 71 149 1.0 0.0 0.00 0.00 0.00 37 1024.7
20260902194035 70 192 2.0 0.0 0.00 0.00 0.00 40 1025.4
20260902193032 70 283 2.0 0.0 0.00 0.00 0.00 40 1025.5
20260902191031 68 159 0.0 0.0 0.00 0.00 0.00 46 1025.6
20260902190027 67 260 1.0 0.0 0.00 0.00 0.00 47 1025.7
20260902184027 68 205 2.0 0.0 0.00 0.00 0.00 43 1026.0
20260902183025 70 115 1.0 0.0 0.00 0.00 0.00 44 1025.9
20260902182023 69 189 1.0 0.0 0.00 0.00 0.00 43 1026.2
20260902181020 69 279 1.0 0.0 0.00 0.00 0.00 44 1026.4
20260902180022 69 191 1.0 0.0 0.00 0.00 0.00 43 1026.5
20260902175021 68 307 2.0 0.0 0.00 0.00 0.00 46 1026.7
20260902174021 68 182 1.0 0.0 0.00 0.00 0.00 47 1026.9
20260902173023 68 190 1.0 0.0 0.00 0.00 0.00 47 1026.8
20260902172022 68 163 1.0 0.0 0.00 0.00 0.00 48 1026.8
20260902171020 67 206 1.0 0.0 0.00 0.00 0.00 48 1026.7
20260902170022 67 271 1.0 0.0 0.00 0.00 0.00 49 1026.7
20260902164039 66 226 1.0 0.0 0.00 0.00 0.00 51 1027.0
20260902163018 64 119 3.0 0.0 0.00 0.00 0.00 55 1027.3
20260902161019 59 43 1.0 0.0 0.00 0.00 0.00 62 1027.5
20260902160020 59 80 1.0 0.0 0.00 0.00 0.00 61 1027.5
20260902155022 58 66 0.0 0.0 0.00 0.00 0.00 64 1027.5
20260902153019 57 32 0.0 0.0 0.00 0.00 0.00 67 1027.5
20260902152040 56 33 0.0 0.0 0.00 0.00 0.00 67 1027.7
20260902151037 55 29 0.0 0.0 0.00 0.00 0.00 68 1027.8
20260902150019 55 355 0.0 0.0 0.00 0.00 0.00 71 1027.9
20260902145022 55 329 0.0 0.0 0.00 0.00 0.00 70 1028.0
20260902144021 55 321 0.0 0.0 0.00 0.00 0.00 69 1027.3
20260902143020 55 319 0.0 0.0 0.00 0.00 0.00 68 1027.4
20260902142023 55 309 0.0 0.0 0.00 0.00 0.00 65 1027.4
20260902140039 54 309 0.0 0.0 0.00 0.00 0.00 69 1027.8
20260902133040 49 304 0.0 0.0 0.00 0.00 0.00 78 1027.5
20260902132020 47 305 0.0 0.0 0.00 0.00 0.00 79 1027.4
20260902131024 47 305 0.0 0.0 0.00 0.00 0.00 81 1027.4
20260902130021 46 305 0.0 0.0 0.00 0.00 0.00 80 1027.4
20260902125019 46 305 0.0 0.0 0.00 0.00 0.00 79 1027.2
20260902124024 47 305 0.0 0.0 0.00 0.00 0.00 75 1027.3
20260902123022 48 305 0.0 0.0 0.00 0.00 0.00 72 1027.2
20260902122020 49 305 0.0 0.0 0.00 0.00 0.00 72 1027.1
20260902121018 49 305 0.0 0.0 0.00 0.00 0.00 71 1026.9
20260902120021 49 305 0.0 0.0 0.00 0.00 0.00 71 1026.8
20260902114039 48 306 0.0 0.0 0.00 0.00 0.00 73 1026.7
20260902113035 48 306 0.0 0.0 0.00 0.00 0.00 76 1026.6
20260902112035 48 306 0.0 0.0 0.00 0.00 0.00 73 1026.5
20260902111018 48 306 0.0 0.0 0.00 0.00 0.00 75 1026.5
20260902105037 48 306 0.0 0.0 0.00 0.00 0.00 76 1026.7
20260902104038 47 306 0.0 0.0 0.00 0.00 0.00 78 1026.7
20260902103035 46 306 0.0 0.0 0.00 0.00 0.00 79 1026.7
20260902102036 46 306 0.0 0.0 0.00 0.00 0.00 80 1026.5
20260902100029 45 306 0.0 0.0 0.00 0.00 0.00 81 1026.7
20260902094027 46 306 0.0 0.0 0.00 0.00 0.00 80 1026.8
20260902093028 46 306 0.0 0.0 0.00 0.00 0.00 79 1026.8
20260902091027 46 306 0.0 0.0 0.00 0.00 0.00 79 1026.9
20260902085021 47 306 0.0 0.0 0.00 0.00 0.00 79 1027.0
20260902084038 47 306 0.0 0.0 0.00 0.00 0.00 79 1027.1
20260902083020 46 306 0.0 0.0 0.00 0.00 0.00 80 1027.2
20260902082037 46 306 0.0 0.0 0.00 0.00 0.00 79 1027.2
20260902081032 46 306 0.0 0.0 0.00 0.00 0.00 79 1027.2
20260902080033 46 306 2.0 0.0 0.00 0.00 0.00 78 1027.2
20260902074040 48 306 0.0 0.0 0.00 0.00 0.00 75 1027.0
20260902073016 48 306 0.0 0.0 0.00 0.00 0.00 75 1026.9
20260902071035 49 306 0.0 0.0 0.00 0.00 0.00 74 1026.9
20260902064037 49 306 0.0 0.0 0.00 0.00 0.00 75 1026.6
20260902063032 49 306 0.0 0.0 0.00 0.00 0.00 76 1026.3
20260902062028 48 306 0.0 0.0 0.00 0.00 0.00 77 1026.4
20260902061030 47 306 0.0 0.0 0.00 0.00 0.00 77 1026.2
20260902060028 48 306 0.0 0.0 0.00 0.00 0.00 76 1026.2
20260902055025 48 306 0.0 0.0 0.00 0.00 0.01 76 1026.2
20260902053023 47 306 0.0 0.0 0.00 0.00 0.01 77 1026.2
20260902052025 47 306 0.0 0.0 0.00 0.00 0.01 77 1026.9
20260902051022 48 306 0.0 0.0 0.00 0.00 0.01 75 1026.8
20260902050018 49 306 0.0 0.0 0.00 0.00 0.01 72 1026.8
20260902045017 49 306 0.0 0.0 0.00 0.00 0.01 72 1026.8
20260902044017 50 306 0.0 0.0 0.00 0.00 0.01 71 1026.9
20260902043022 50 306 0.0 0.0 0.00 0.00 0.01 70 1027.0
20260902042041 51 306 0.0 0.0 0.00 0.00 0.01 69 1027.0
20260902041037 51 306 0.0 0.0 0.00 0.00 0.01 68 1027.0
20260902035033 52 306 0.0 0.0 0.00 0.00 0.01 68 1027.0
20260902034034 52 306 0.0 0.0 0.00 0.00 0.01 68 1026.8
20260902033031 53 306 0.0 0.0 0.00 0.00 0.01 67 1026.7
20260902032028 54 306 0.0 0.0 0.00 0.00 0.01 66 1026.5
20260902031025 54 306 0.0 0.0 0.00 0.00 0.01 68 1026.6
20260902030028 53 306 0.0 0.0 0.00 0.00 0.01 71 1026.5
20260902024025 55 306 0.0 0.0 0.00 0.00 0.01 72 1026.2
20260902023040 54 306 0.0 0.0 0.00 0.00 0.01 73 1026.2
20260902022038 54 306 0.0 0.0 0.00 0.00 0.01 75 1025.9